Location: Champs
(48.8539°N, 2.6040°E)
Time: 06:16:34
(UTC+00:00)

Cosmos 1953 - Pass Details

Date: 01 June 2022
Orbit: 533 x 555 km, 82.5° (Epoch: 03 July)

Event Time Altitude Azimuth Distance (km) Brightness Sun altitude
Rises 00:44:22 0° 336° (NNW) 2,720 6.7 -18.0°
Reaches altitude 10° 00:47:03 10° 318° (NW) 1,817 5.4 -17.9°
Maximum altitude 00:49:48 18° 274° (W) 1,360 4.2 -17.8°
Enters shadow 00:50:36 17° 258° (WSW) 1,401 4.1 -17.7°
